Meteo pe oră la Aberkenfig

Astăzi, 24 Iulie, Sâmbătă

Timp Temperatura Precipitaţii Vânt Presiune Umiditate
00:00 +17°C° 0 mm 8 m/s 746 mmHg 77%
01:00 +16°C° 0.6 mm 8 m/s 746 mmHg 80%
02:00 +16°C° 0.6 mm 8 m/s 746 mmHg 82%
03:00 +15°C° 0.6 mm 7 m/s 746 mmHg 85%
04:00 +15°C° 1 mm 8 m/s 746 mmHg 86%
05:00 +13°C° 1 mm 8 m/s 745 mmHg 88%
06:00 +13°C° 1 mm 8 m/s 745 mmHg 90%
07:00 +15°C° 0.1 mm 8 m/s 745 mmHg 89%
08:00 +15°C° 0.1 mm 8 m/s 745 mmHg 89%
09:00 +16°C° 0.1 mm 8 m/s 745 mmHg 88%
10:00 +16°C° 0 mm 7 m/s 746 mmHg 87%
11:00 +17°C° 0 mm 7 m/s 746 mmHg 86%
12:00 +17°C° 0 mm 6 m/s 746 mmHg 85%
13:00 +19°C° 0.1 mm 6 m/s 746 mmHg 85%
14:00 +19°C° 0.1 mm 5 m/s 746 mmHg 84%
15:00 +19°C° 0.1 mm 5 m/s 746 mmHg 83%
16:00 +20°C° 0.3 mm 4 m/s 746 mmHg 83%
17:00 +20°C° 0.3 mm 4 m/s 746 mmHg 84%
18:00 +20°C° 0.3 mm 3 m/s 745 mmHg 84%
19:00 +19°C° 0.4 mm 3 m/s 746 mmHg 87%
20:00 +18°C° 0.4 mm 3 m/s 746 mmHg 90%
21:00 +17°C° 0.4 mm 3 m/s 746 mmHg 93%
22:00 +17°C° 0.1 mm 3 m/s 746 mmHg 94%
23:00 +15°C° 0.1 mm 4 m/s 746 mmHg 94%

Mâine, 25 Iulie, Duminică

Timp Temperatura Precipitaţii Vânt Presiune Umiditate
00:00 +15°C° 0.1 mm 4 m/s 746 mmHg 94%
01:00 +15°C° 0.1 mm 4 m/s 746 mmHg 95%
02:00 +15°C° 0.1 mm 4 m/s 746 mmHg 95%
03:00 +14°C° 0.1 mm 3 m/s 746 mmHg 96%
04:00 +14°C° 0.1 mm 3 m/s 746 mmHg 96%
05:00 +16°C° 0.1 mm 3 m/s 746 mmHg 95%
06:00 +16°C° 0.1 mm 3 m/s 746 mmHg 95%
07:00 +17°C° 0 mm 3 m/s 746 mmHg 91%
08:00 +18°C° 0 mm 2 m/s 746 mmHg 88%
09:00 +18°C° 0 mm 2 m/s 746 mmHg 84%
10:00 +19°C° 0.1 mm 2 m/s 747 mmHg 80%
11:00 +20°C° 0.1 mm 2 m/s 747 mmHg 76%
12:00 +21°C° 0.1 mm 2 m/s 747 mmHg 71%
13:00 +21°C° 0.2 mm 2 m/s 747 mmHg 71%
14:00 +23°C° 0.2 mm 2 m/s 747 mmHg 71%
15:00 +22°C° 0.2 mm 3 m/s 747 mmHg 70%
16:00 +21°C° 0.1 mm 3 m/s 747 mmHg 73%
17:00 +21°C° 0.1 mm 4 m/s 747 mmHg 75%
18:00 +21°C° 0.1 mm 4 m/s 747 mmHg 78%
19:00 +19°C° 0 mm 3 m/s 747 mmHg 82%
20:00 +18°C° 0 mm 3 m/s 747 mmHg 86%
21:00 +16°C° 0 mm 3 m/s 747 mmHg 90%
22:00 +14°C° 0 mm 3 m/s 747 mmHg 90%
23:00 +14°C° 0 mm 3 m/s 747 mmHg 90%

Poimâine, 26 Iulie, Luni

Timp Temperatura Precipitaţii Vânt Presiune Umiditate
00:00 +13°C° 0 mm 3 m/s 748 mmHg 90%
01:00 +13°C° 0 mm 3 m/s 747 mmHg 91%
02:00 +13°C° 0 mm 3 m/s 747 mmHg 91%
03:00 +13°C° 0 mm 3 m/s 747 mmHg 91%
04:00 +14°C° 0 mm 2 m/s 747 mmHg 90%
05:00 +15°C° 0 mm 2 m/s 748 mmHg 89%
06:00 +16°C° 0 mm 2 m/s 748 mmHg 88%
07:00 +17°C° 0 mm 2 m/s 748 mmHg 83%
08:00 +19°C° 0 mm 2 m/s 748 mmHg 78%
09:00 +21°C° 0 mm 2 m/s 748 mmHg 73%
10:00 +21°C° 0.1 mm 2 m/s 748 mmHg 71%
11:00 +23°C° 0.1 mm 2 m/s 748 mmHg 69%
12:00 +24°C° 0.1 mm 2 m/s 748 mmHg 67%
13:00 +24°C° 0.4 mm 3 m/s 748 mmHg 67%
14:00 +24°C° 0.4 mm 3 m/s 747 mmHg 67%
15:00 +23°C° 0.4 mm 4 m/s 747 mmHg 68%
16:00 +22°C° 0.1 mm 3 m/s 747 mmHg 70%
17:00 +21°C° 0.1 mm 3 m/s 747 mmHg 72%
18:00 +20°C° 0.1 mm 3 m/s 747 mmHg 75%
19:00 +19°C° 0 mm 3 m/s 747 mmHg 77%
20:00 +18°C° 0 mm 3 m/s 747 mmHg 80%
21:00 +16°C° 0 mm 3 m/s 747 mmHg 82%
22:00 +16°C° 0 mm 2 m/s 747 mmHg 81%
23:00 +15°C° 0 mm 2 m/s 747 mmHg 81%

27 Iulie, Marţi

Timp Temperatura Precipitaţii Vânt Presiune Umiditate
00:00 +15°C° 0 mm 2 m/s 747 mmHg 80%
01:00 +15°C° 0 mm 2 m/s 747 mmHg 81%
02:00 +14°C° 0 mm 2 m/s 747 mmHg 82%
03:00 +14°C° 0 mm 1 m/s 747 mmHg 83%
04:00 +15°C° 0 mm 1 m/s 747 mmHg 83%
05:00 +15°C° 0 mm 1 m/s 747 mmHg 83%
06:00 +16°C° 0 mm 1 m/s 747 mmHg 83%
07:00 +18°C° 0 mm 1 m/s 747 mmHg 79%
08:00 +19°C° 0 mm 1 m/s 747 mmHg 74%
09:00 +21°C° 0 mm 1 m/s 748 mmHg 70%
10:00 +20°C° 0.1 mm 2 m/s 748 mmHg 71%
11:00 +20°C° 0.1 mm 3 m/s 747 mmHg 71%
12:00 +21°C° 0.1 mm 4 m/s 747 mmHg 71%
13:00 +20°C° 0.3 mm 5 m/s 747 mmHg 74%
14:00 +20°C° 0.3 mm 6 m/s 747 mmHg 77%
15:00 +20°C° 0.3 mm 6 m/s 747 mmHg 80%
16:00 +18°C° 0.1 mm 7 m/s 747 mmHg 80%
17:00 +17°C° 0.1 mm 7 m/s 748 mmHg 81%
18:00 +16°C° 0.1 mm 7 m/s 748 mmHg 81%
19:00 +15°C° 0 mm 6 m/s 748 mmHg 83%
20:00 +14°C° 0 mm 6 m/s 748 mmHg 86%
21:00 +13°C° 0 mm 5 m/s 748 mmHg 89%
22:00 +13°C° 0 mm 5 m/s 748 mmHg 89%
23:00 +13°C° 0 mm 5 m/s 748 mmHg 90%

28 Iulie, Miercuri

Timp Temperatura Precipitaţii Vânt Presiune Umiditate
00:00 +13°C° 0 mm 5 m/s 748 mmHg 90%
01:00 +12°C° 0 mm 5 m/s 748 mmHg 91%
02:00 +12°C° 0 mm 4 m/s 748 mmHg 91%
03:00 +11°C° 0 mm 4 m/s 748 mmHg 92%
04:00 +12°C° 0 mm 4 m/s 748 mmHg 91%
05:00 +12°C° 0 mm 3 m/s 748 mmHg 91%
06:00 +12°C° 0 mm 3 m/s 748 mmHg 90%
07:00 +13°C° 0 mm 4 m/s 748 mmHg 83%
08:00 +14°C° 0 mm 5 m/s 749 mmHg 76%
09:00 +16°C° 0 mm 5 m/s 749 mmHg 68%
10:00 +16°C° 0 mm 6 m/s 749 mmHg 66%
11:00 +17°C° 0 mm 6 m/s 749 mmHg 64%
12:00 +17°C° 0 mm 7 m/s 749 mmHg 62%
13:00 +17°C° 0.1 mm 7 m/s 749 mmHg 63%
14:00 +17°C° 0.1 mm 7 m/s 749 mmHg 64%
15:00 +17°C° 0.1 mm 7 m/s 749 mmHg 65%
16:00 +17°C° 0.1 mm 7 m/s 749 mmHg 70%
17:00 +16°C° 0.1 mm 7 m/s 749 mmHg 74%
18:00 +16°C° 0.1 mm 7 m/s 749 mmHg 78%
19:00 +15°C° 0 mm 6 m/s 749 mmHg 82%
20:00 +14°C° 0 mm 6 m/s 748 mmHg 86%
21:00 +13°C° 0 mm 5 m/s 748 mmHg 90%
22:00 +13°C° 0 mm 6 m/s 748 mmHg 91%
23:00 +13°C° 0 mm 6 m/s 747 mmHg 93%

29 Iulie, Joi

Timp Temperatura Precipitaţii Vânt Presiune Umiditate
00:00 +13°C° 0 mm 6 m/s 747 mmHg 94%
01:00 +14°C° 0.5 mm 7 m/s 746 mmHg 94%
02:00 +14°C° 0.5 mm 7 m/s 746 mmHg 94%
03:00 +15°C° 0.5 mm 8 m/s 745 mmHg 94%
04:00 +15°C° 0.2 mm 8 m/s 745 mmHg 93%
05:00 +13°C° 0.2 mm 8 m/s 744 mmHg 93%
06:00 +13°C° 0.2 mm 8 m/s 744 mmHg 92%
07:00 +15°C° 0.4 mm 8 m/s 744 mmHg 90%
08:00 +15°C° 0.4 mm 8 m/s 744 mmHg 89%
09:00 +16°C° 0.4 mm 9 m/s 743 mmHg 87%
10:00 +15°C° 0.6 mm 9 m/s 743 mmHg 88%
11:00 +14°C° 0.6 mm 10 m/s 743 mmHg 90%
12:00 +13°C° 0.6 mm 11 m/s 743 mmHg 91%
13:00 +14°C° 0.7 mm 10 m/s 743 mmHg 89%
14:00 +15°C° 0.7 mm 9 m/s 743 mmHg 87%
15:00 +16°C° 0.7 mm 8 m/s 742 mmHg 85%
16:00 +16°C° 0.1 mm 7 m/s 743 mmHg 84%
17:00 +16°C° 0.1 mm 6 m/s 743 mmHg 82%
18:00 +15°C° 0.1 mm 5 m/s 743 mmHg 81%
19:00 +14°C° 0 mm 5 m/s 744 mmHg 83%
20:00 +13°C° 0 mm 5 m/s 744 mmHg 86%
21:00 +11°C° 0 mm 4 m/s 744 mmHg 89%
22:00 +10°C° 0 mm 5 m/s 744 mmHg 88%
23:00 +10°C° 0 mm 5 m/s 744 mmHg 88%
Arată mai mult

Formular de consimțământ

Meteoprog și furnizorii noștri de servicii pot stoca și accesa date personale, precum cookies, identificatori de dispozitiv sau alte tehnologii similare pe dispozitivul dumneavoastră și procesa astfel de date pentru a personaliza conținutul și reclamele, dar și pentru a oferi caracteristici de social media și pentru a analiza traficul.

  • Stocarea și/sau accesarea informațiilor pe dispozitivul dumneavoastră

    Cookies, identificatori de dispozitiv sau alte informații pot fi stocate sau accesate pe dispozitiv în scopurile indicate mai sus.

  • Reclame și conținut personalizat, evaluarea reclamelor și a conținutului, informații despre audiențe și dezvoltarea produselor

    Reclamele și conținutul pot fi personalizate pe baza unui profil. Pot fi adăugate date suplimentare pentru a personaliza mai bine reclamele și conținutul. Performanța reclamelor și conținutului poate fi măsurată. Pot fi obținute informații despre utilizatorii care au văzut reclamele și conținutul. Aceste date pot fi utilizate pentru a dezvolta sau îmbunătăți experiența utilizatorilor, sistemele și software-ul.

Dând clic pe ‘Sunt de acord’, permiteți utilizarea cookie-urilor menționate, a identificatorilor de dispozitiv, balizelor web sau altor tehnologii similare. Setările pot fi modificate din browser-ul dispozitivului dumneavoastră.

În anumite scopuri, interesele legitime pot prima asupra consimțământului. Puteți citi mai multe informații în acest sens în Politica privind Confidențialitatea Datelor și Cookie.